Flag for Germany Weather past 2 weeks in Garbsen, Lower Saxony, Germany

Now
81 °F

Scattered clouds.


Feels Like: 82 °F
Forecast: 62 / 75 °F
Wind: 9 mph from Northeast

Location: Hannover

Current Time: Jul 29, 2014 at 5:43:31 PM

Latest Report: Jul 29, 2014 at 5:20 PM


Visibility: N/A

Pressure: 29.77 "Hg

Humidity: 54%

Dew point: 63 °F

Location of GarbsenLocation

Historic Weather in Garbsen — Graph

°F

Garbsen temperature yesterday

Maximum temperature yesterday: 82 °F (at 4:50 PM)
Minimum temperature yesterday: 59 °F (at 4:20 AM)
Average temperature yesterday: 70 °F

Past Weeks' High & Low Weather Summary

 TemperatureHumidityPressure
High91 °F (Jul 19, 2:50 PM)100% (Jul 16, 4:20 AM)30.18 "Hg (Jul 16, 4:20 AM)
Low54 °F (Jul 17, 4:20 AM)26% (Jul 19, 2:20 PM)29.77 "Hg (Jul 20, 5:50 PM)
Average70 °F73%29.99 "Hg
* Reported Jul 14 4:20 PM — Jul 29 4:50 PM, Garbsen, Weather by CustomWeather, © 2014

Note: Actual official high and low records may vary slightly from our data, if they occured in-between our weather recording intervals... More about our weather records

Advertising

Garbsen weather history for previous 24 hours

 ConditionsComfort  
Time TempWeatherWind HumidityBarometerVisibility
4:50 PM
Jul 29
79 °FScattered clouds.7 mph58%29.77 "HgN/A
4:20 PM79 °FBroken clouds.8 mph61%29.77 "HgN/A
3:50 PM79 °FBroken clouds.6 mph61%29.77 "HgN/A
3:20 PM77 °FLight rain. Broken clouds.6 mph65%29.80 "HgN/A
2:50 PM75 °FLight rain. Partly sunny.5 mph74%29.80 "HgN/A
2:20 PM75 °FPartly sunny.5 mph69%29.80 "HgN/A
1:50 PM75 °FPartly sunny.3 mph69%29.83 "HgN/A
1:20 PM75 °FPartly sunny.2 mph69%29.83 "HgN/A
12:50 PM73 °FPartly sunny.1 mph69%29.83 "HgN/A
12:20 PM73 °FPartly sunny.5 mph69%29.83 "HgN/A
11:50 AM73 °FBroken clouds.3 mph69%29.83 "HgN/A
11:20 AM73 °FPassing clouds.7 mph69%29.86 "HgN/A
10:50 AM75 °FSunny.9 mph61%29.86 "Hg10 mi
10:20 AM75 °FScattered clouds.6 mph74%29.83 "HgN/A
9:50 AM73 °FScattered clouds.7 mph74%29.83 "HgN/A
9:20 AM73 °FPassing clouds.7 mph74%29.83 "HgN/A
8:50 AM72 °FPassing clouds.6 mph78%29.83 "HgN/A
8:20 AM70 °FPartly sunny.7 mph83%29.83 "HgN/A
7:50 AM70 °FBroken clouds.6 mph83%29.83 "HgN/A
7:20 AM68 °FPartly sunny.3 mph88%29.83 "HgN/A
6:50 AM66 °FBroken clouds.2 mph94%29.83 "HgN/A
6:20 AM64 °FFog.3 mph94%29.83 "HgN/A
5:50 AM64 °FPassing clouds.1 mph94%29.86 "HgN/A
5:20 AM64 °FPassing clouds.2 mph94%29.83 "HgN/A
4:50 AM64 °FClear.2 mph94%29.83 "Hg10 mi
4:20 AM64 °FPassing clouds.3 mph94%29.83 "HgN/A
3:50 AM66 °FClear.6 mph88%29.83 "Hg10 mi
3:20 AM66 °FClear.5 mph88%29.86 "Hg10 mi
2:50 AM66 °FClear.3 mph88%29.86 "Hg10 mi
2:20 AM66 °FClear.5 mph88%29.86 "Hg10 mi
1:50 AM68 °FClear.5 mph88%29.86 "Hg10 mi
1:20 AM68 °FPassing clouds.3 mph83%29.86 "HgN/A
12:50 AM68 °FClear.3 mph83%29.86 "Hg10 mi
12:20 AM68 °FClear.3 mph83%29.86 "Hg10 mi
11:20 PM
Jul 28
68 °FClear.3 mph88%29.86 "Hg10 mi
10:50 PM70 °FClear.3 mph83%29.86 "Hg10 mi
10:20 PM70 °FClear.5 mph83%29.86 "Hg10 mi
9:50 PM72 °FSunny.2 mph78%29.86 "Hg10 mi
9:20 PM73 °FBroken clouds.5 mph74%29.86 "HgN/A
8:50 PM75 °FBroken clouds.5 mph69%29.86 "HgN/A
8:20 PM75 °FPartly sunny.5 mph69%29.86 "HgN/A
7:50 PM77 °FScattered showers. Partly sunny.6 mph65%29.86 "HgN/A
7:20 PM79 °FPartly sunny.9 mph61%29.83 "HgN/A
6:50 PM81 °FScattered clouds.10 mph54%29.83 "HgN/A
6:20 PM81 °FPassing clouds.12 mph58%29.83 "HgN/A
5:50 PM82 °FPassing clouds.8 mph55%29.83 "HgN/A
5:20 PM82 °FPassing clouds.8 mph55%29.86 "HgN/A
Weather by CustomWeather, © 2014

See weather overviewHow to use our weather pages